Weather History for Astoria, OR

Change the Weather History Date:

Sunday, February 17, 2013

  Actual Average Record
Temperature  
Mean Temperature 43 °F 44 °F  
Max Temperature 48 °F 52 °F 67 °F (1941)
Min Temperature 37 °F 37 °F 25 °F (1985)
Degree Days  
Heating Degree Days 22 21  
Month to date heating degree days 336 357  
Since 1 July heating degree days 3146 3122  
Cooling Degree Days 0 0  
Month to date cooling degree days 0 0  
Year to date cooling degree days 0 0  
Moisture  
Dew Point 37 °F    
Average Humidity 83    
Maximum Humidity 100    
Minimum Humidity 65    
Precipitation  
Precipitation 0.05 in 0.25 in 2.30 in (1949)
Month to date precipitation 1.75 4.46  
Year to date precipitation 10.85 14.66  
Snow  
Snow 0.00 in - - ()
Month to date snowfall 0.0  
Snow Depth 0.00 in    
Sea Level Pressure  
Sea Level Pressure 30.23 in    
Wind  
Wind Speed 3 mph (South)    
Max Wind Speed 13 mph    
Max Gust Speed 17 mph    
Visibility 9 miles    
Events Rain    
T = Trace of Precipitation, MM = Missing Value Source: NWS Daily Summary

Daily Weather History Graph

Daily Weather History Graph

Search for Another Location

Airport:

Trip Planner

Search our weather history database for the weather conditions in past years. The results will help you decide how hot, cold, wet, or windy it might be!

Date:

Astronomy

Feb. 17, 2013 Rise Set
Actual Time 7:14 AM PST 5:45 PM PST
Civil Twilight 6:43 AM PST 6:15 PM PST
Nautical Twilight 6:09 AM PST 6:50 PM PST
Astronomical Twilight 5:34 AM PST 7:25 PM PST
Moon 10:45 AM PST (2/17) 1:11 AM PST (2/17)
Length of Visible Light 11h 31m
Length of Day
10h 30m
Waxing Crescent, 50% of the Moon is Illuminated
Feb 17
Waxing Crescent
Feb 17
First Quarter
Feb 25
Full
Mar 4
Last Quarter
Mar 11
New

Hourly Weather History & Observations

Time (PST) Temp. Windchill Dew Point Humidity Pressure Visibility Wind Dir Wind Speed Gust Speed Precip Events Conditions
12:55 AM 39.9 °F 37.8 °F 36.0 °F 86% 30.29 in 10.0 mi WSW 3.5 mph - N/A   Overcast
1:55 AM 41.0 °F 38.0 °F 34.0 °F 76% 30.29 in 10.0 mi West 4.6 mph - N/A   Overcast
2:55 AM 39.0 °F - 34.0 °F 82% 30.28 in 10.0 mi Calm Calm - N/A   Partly Cloudy
3:55 AM 39.9 °F - 35.1 °F 83% 30.27 in 10.0 mi Calm Calm - N/A   Overcast
4:55 AM 39.0 °F - 37.0 °F 93% 30.28 in 10.0 mi Calm Calm - 0.00 in   Overcast
5:55 AM 39.9 °F 35.8 °F 37.0 °F 89% 30.27 in 10.0 mi SSE 5.8 mph - 0.02 in   Overcast
6:28 AM 39.2 °F 35.0 °F 37.4 °F 93% 30.27 in 10.0 mi SSE 5.8 mph - N/A   Overcast
6:36 AM 39.2 °F 35.9 °F 37.4 °F 93% 30.27 in 10.0 mi SSE 4.6 mph - N/A   Overcast
6:55 AM 39.0 °F 33.4 °F 37.0 °F 93% 30.26 in 10.0 mi SSE 8.1 mph - N/A   Overcast
7:30 AM 39.2 °F 37.0 °F 37.4 °F 93% 30.27 in 10.0 mi Variable 3.5 mph - 0.00 in Rain Light Rain
7:55 AM 39.9 °F 37.8 °F 37.0 °F 89% 30.27 in 10.0 mi ESE 3.5 mph - 0.00 in Rain Light Rain
8:55 AM 41.0 °F 39.0 °F 37.9 °F 89% 30.27 in 10.0 mi SE 3.5 mph - 0.00 in   Mostly Cloudy
9:45 AM 42.8 °F 38.0 °F 39.2 °F 87% 30.27 in 2.5 mi NE 8.1 mph - 0.01 in Rain Rain
9:55 AM 42.1 °F 37.1 °F 39.0 °F 89% 30.27 in 3.0 mi ESE 8.1 mph - 0.03 in Rain Light Rain
10:55 AM 44.1 °F 42.5 °F 39.0 °F 82% 30.27 in 10.0 mi WSW 3.5 mph - 0.00 in   Overcast
11:55 AM 46.0 °F 44.8 °F 39.0 °F 76% 30.26 in 10.0 mi Variable 3.5 mph - N/A   Mostly Cloudy
12:09 PM 46.4 °F 42.9 °F 39.2 °F 76% 30.26 in 10.0 mi NNE 6.9 mph - N/A   Overcast
12:33 PM 44.6 °F 42.2 °F 37.4 °F 76% 30.26 in 10.0 mi North 4.6 mph - N/A   Mostly Cloudy
12:55 PM 46.0 °F 43.9 °F 37.9 °F 73% 30.25 in 10.0 mi North 4.6 mph - N/A   Overcast
1:28 PM 46.4 °F 41.1 °F 37.4 °F 71% 30.24 in 10.0 mi WSW 11.5 mph - N/A   Overcast
1:55 PM 48.0 °F - 37.0 °F 66% 30.23 in 10.0 mi West 8.1 mph - N/A   Mostly Cloudy
2:55 PM 46.9 °F - 36.0 °F 66% 30.22 in 10.0 mi WSW 8.1 mph - N/A   Overcast
3:55 PM 46.0 °F 43.9 °F 36.0 °F 68% 30.21 in 10.0 mi WNW 4.6 mph - N/A   Overcast
4:55 PM 44.1 °F 40.8 °F 37.0 °F 76% 30.19 in 10.0 mi NNW 5.8 mph - N/A   Scattered Clouds
5:55 PM 42.1 °F - 36.0 °F 79% 30.18 in 10.0 mi Calm Calm - N/A   Clear
6:55 PM 39.9 °F - 36.0 °F 86% 30.18 in 10.0 mi Calm Calm - N/A   Clear
7:55 PM 41.0 °F - 37.0 °F 86% 30.17 in 10.0 mi Calm Calm - N/A   Clear
8:55 PM 39.0 °F 36.8 °F 37.0 °F 93% 30.16 in 10.0 mi ESE 3.5 mph - N/A   Clear
9:55 PM 37.9 °F - 36.0 °F 93% 30.15 in 10.0 mi Calm Calm - N/A   Clear
10:55 PM 37.9 °F 35.5 °F 37.0 °F 97% 30.13 in 10.0 mi SE 3.5 mph - N/A   Clear
11:55 PM 37.9 °F - 36.0 °F 93% 30.10 in 10.0 mi Calm Calm - N/A   Mostly Cloudy